Weather History for LGKZ - October, 2011

Change the Weather History Date:

Wednesday, October 19, 2011

  Actual Average Record
Temperature  
Mean Temperature 50 °F -  
Max Temperature 64 °F - - ()
Min Temperature 37 °F - - ()
Degree Days  
Heating Degree Days 14    
Moisture  
Dew Point 26 °F    
Average Humidity 37    
Maximum Humidity 65    
Minimum Humidity 15    
Precipitation  
Precipitation 0.00 in - - ()
Sea Level Pressure  
Sea Level Pressure 30.23 in    
Wind  
Wind Speed 2 mph ()    
Max Wind Speed 8 mph    
Max Gust Speed -    
T = Trace of Precipitation, MM = Missing Value Source: Averaged Metar Reports

Daily Weather History Graph

Daily Weather History Graph

Search for Another Location

Airport or City:

Trip Planner

Search our weather history database for the weather conditions in past years. The results will help you decide how hot, cold, wet, or windy it might be!

Date:

Astronomy

Oct. 19, 2011 Rise Set
Actual Time 7:47 AM EEST 6:47 PM EEST
Civil Twilight 7:19 AM EEST 7:15 PM EEST
Nautical Twilight 6:47 AM EEST 7:46 PM EEST
Astronomical Twilight 6:16 AM EEST 8:18 PM EEST
Moon No Moon Rise 2:06 PM EEST (10/19)
Length of Visible Light 11h 55m
Length of Day
11h 00m
Waning Gibbous, 58% of the Moon is Illuminated
Oct 19
Waning Gibbous
Oct 20
Last Quarter
Oct 26
New
Nov 2
First Quarter
Nov 10
Full

Hourly Weather History & Observations

Time (EEST) Temp. Windchill Dew Point Humidity Pressure Visibility Wind Dir Wind Speed Gust Speed Precip Events Conditions
8:50 AM 37.4 °F 31.4 °F 26.6 °F 65% 30.27 in - NW 8.1 mph - N/A   Clear
9:50 AM 46.4 °F - 30.2 °F 53% 30.27 in - Calm Calm - N/A   Clear
10:50 AM 50.0 °F - 32.0 °F 50% 30.27 in - Calm Calm - N/A   Clear
11:50 AM 53.6 °F - 32.0 °F 44% 30.30 in - Calm Calm - N/A   Clear
12:50 PM 57.2 °F - 30.2 °F 36% 30.27 in - Variable 2.3 mph - N/A   Unknown
1:50 PM 60.8 °F - 32.0 °F 34% 30.27 in - Calm Calm - N/A   Clear
2:50 PM 64.4 °F - 32.0 °F 30% 30.24 in - Calm Calm - N/A   Clear
3:00 PM 64.4 °F - 32.0 °F 30% 30.24 in - Calm Calm - N/A   Clear
3:20 PM 64.4 °F - 17.6 °F 16% 30.21 in - Variable 2.3 mph - N/A   Unknown
3:50 PM 64.4 °F - 15.8 °F 15% 30.21 in - Variable 3.5 mph - N/A   Unknown
4:20 PM 64.4 °F - 19.4 °F 18% 30.21 in - SE 4.6 mph - N/A   Unknown
4:50 PM 64.4 °F - 23.0 °F 21% 30.21 in - Variable 2.3 mph - N/A   Unknown
5:20 PM 64.4 °F - 21.2 °F 19% 30.21 in - Variable 1.2 mph - N/A   Unknown
5:50 PM 64.4 °F - 21.2 °F 19% 30.21 in - Variable 2.3 mph - N/A   Unknown
6:20 PM 60.8 °F - 23.0 °F 23% 30.21 in - Variable 2.3 mph - N/A   Unknown
6:50 PM 55.4 °F - 24.8 °F 31% 30.21 in - Variable 2.3 mph - N/A   Unknown
7:20 PM 51.8 °F - 26.6 °F 38% 30.21 in - Calm Calm - N/A   Unknown
7:50 PM 50.0 °F - 28.4 °F 43% 30.21 in - Variable 2.3 mph - N/A   Unknown
8:20 PM 50.0 °F - 26.6 °F 40% 30.21 in - North 4.6 mph - N/A   Unknown
8:50 PM 50.0 °F - 26.6 °F 40% 30.21 in - Variable 3.5 mph - N/A   Unknown
9:20 PM 48.2 °F - 26.6 °F 43% 30.21 in - Variable 3.5 mph - N/A   Unknown
9:50 PM 46.4 °F 43.5 °F 26.6 °F 46% 30.21 in - North 5.8 mph - N/A   Unknown
10:20 PM 44.6 °F 43.1 °F 28.4 °F 53% 30.21 in - Variable 3.5 mph - N/A   Unknown
10:50 PM 46.4 °F - 28.4 °F 50% 30.21 in - Variable 1.2 mph - N/A   Unknown
11:20 PM 44.6 °F 43.1 °F 28.4 °F 53% 30.21 in - Variable 3.5 mph - N/A   Unknown
11:50 PM 46.4 °F 45.2 °F 28.4 °F 50% 30.21 in - Variable 3.5 mph - N/A   Unknown